Location: Unspecified
(0.0000°N, 0.0000°E)
Time: 09:24:56
(UTC+00:00)

Vanguard 2 - Pass Details

Date: 29 October 2021
Orbit: 554 x 2936 km, 32.9° (Epoch: 06 December)

Event Time Altitude Azimuth Distance (km) Brightness Sun altitude
Rises 22:37:46 0° 263° (W) 6,645 12.5 -68.7°
Reaches altitude 10° 22:42:57 10° 272° (W) 5,737 12.0 -69.6°
Enters shadow 22:47:46 20° 284° (WNW) 4,981 11.6 -70.5°
Maximum altitude 22:57:45 32° 328° (NNW) 4,033 - -72.1°
Drops below altitude 10° 23:10:27 10° 26° (NNE) 4,873 - -74.0°
Sets 23:14:29 0° 36° (NE) 5,556 - -74.4°
